AFL1191 UWKD-UUEE

Flight info

Callsign AFL1191
Flight time N/A
Altitude 32000
Route APTAR1H APTAR L158 DIMGI DIMGI3E
Aircraft A320/M-SDE3FGHIRWY/LB1

Departure

Time N/A
Airport Kazan International Airport (UWKD)

Arrival

Time 2026-04-30 18:28
Airport Sheremetyevo International Airport (UUEE)
Time Latitude Longitude Altitude Speed Heading
2026-04-30 17:39 55.82758 45.33270 32141 ft 411 kts 271°
2026-04-30 17:42 55.83925 44.82426 32145 ft 413 kts 271°
2026-04-30 17:43 55.84449 44.56897 32141 ft 413 kts 271°
2026-04-30 17:44 55.84995 44.26195 32146 ft 414 kts 271°
2026-04-30 17:47 55.85682 43.80092 32158 ft 415 kts 271°
2026-04-30 17:48 55.86101 43.44107 32166 ft 416 kts 270°
2026-04-30 17:50 55.86489 43.02744 32174 ft 419 kts 270°
2026-04-30 17:52 55.86682 42.71652 32183 ft 419 kts 270°
2026-04-30 17:54 55.86818 42.25067 32186 ft 418 kts 270°
2026-04-30 17:56 55.86786 41.83619 32195 ft 419 kts 270°
2026-04-30 17:58 55.86019 41.52554 32191 ft 419 kts 268°
2026-04-30 18:00 55.88104 41.11343 32194 ft 419 kts 275°
2026-04-30 18:01 55.89425 40.85504 32196 ft 419 kts 275°
2026-04-30 18:02 55.90943 40.54405 32200 ft 420 kts 275°
2026-04-30 18:04 55.92309 40.24885 32200 ft 422 kts 276°
2026-04-30 18:06 55.94123 39.83133 32207 ft 423 kts 276°
2026-04-30 18:07 55.94979 39.62220 31518 ft 422 kts 276°
2026-04-30 18:08 55.95585 39.46741 29979 ft 412 kts 276°
2026-04-30 18:09 55.96340 39.26763 28186 ft 397 kts 276°
2026-04-30 18:10 55.97056 39.07106 28202 ft 398 kts 276°
2026-04-30 18:11 55.97720 38.87742 26173 ft 384 kts 275°
2026-04-30 18:11 55.97714 38.73697 24731 ft 377 kts 254°
2026-04-30 18:12 55.93297 38.62070 22790 ft 383 kts 232°
2026-04-30 18:13 55.89982 38.54603 21348 ft 386 kts 232°
2026-04-30 18:13 55.84525 38.44168 19313 ft 387 kts 208°
2026-04-30 18:14 55.79578 38.40399 17939 ft 386 kts 202°
2026-04-30 18:15 55.72162 38.35047 15815 ft 385 kts 202°
2026-04-30 18:15 55.64743 38.29720 13904 ft 379 kts 202°
2026-04-30 18:16 55.60570 38.25404 13501 ft 323 kts 231°
2026-04-30 18:16 55.59325 38.18348 12284 ft 300 kts 279°
2026-04-30 18:17 55.60060 38.14941 11767 ft 298 kts 306°
2026-04-30 18:17 55.61490 38.12353 11362 ft 295 kts 321°
2026-04-30 18:17 55.64671 38.07829 10594 ft 290 kts 322°
2026-04-30 18:18 55.66241 38.05627 10339 ft 283 kts 322°
2026-04-30 18:18 55.67762 38.03494 10086 ft 277 kts 322°
2026-04-30 18:18 55.69262 38.01388 9699 ft 274 kts 322°
2026-04-30 18:18 55.70752 37.99296 9298 ft 272 kts 322°
2026-04-30 18:19 55.72324 37.97473 8841 ft 270 kts 335°
2026-04-30 18:19 55.74040 37.96097 8363 ft 271 kts 336°
2026-04-30 18:19 55.75756 37.94722 7875 ft 271 kts 336°
2026-04-30 18:19 55.77469 37.93343 7398 ft 270 kts 336°
2026-04-30 18:20 55.79178 37.91966 6933 ft 269 kts 336°
2026-04-30 18:20 55.80878 37.90600 6554 ft 265 kts 336°
2026-04-30 18:20 55.82535 37.89269 6256 ft 259 kts 336°
2026-04-30 18:20 55.84170 37.87951 5924 ft 257 kts 336°
2026-04-30 18:21 55.85799 37.86638 5595 ft 256 kts 336°
2026-04-30 18:21 55.87418 37.85331 5283 ft 256 kts 335°
2026-04-30 18:21 55.89039 37.84022 4967 ft 255 kts 335°
2026-04-30 18:21 55.90650 37.82720 4639 ft 254 kts 335°
2026-04-30 18:22 55.92254 37.81422 4313 ft 252 kts 335°
2026-04-30 18:22 55.95346 37.78918 3684 ft 240 kts 335°
2026-04-30 18:22 55.96848 37.77697 3361 ft 235 kts 335°
2026-04-30 18:23 55.98318 37.76498 3041 ft 230 kts 335°
2026-04-30 18:23 55.99763 37.75320 2737 ft 226 kts 335°
2026-04-30 18:23 56.01032 37.73793 2538 ft 218 kts 308°
2026-04-30 18:23 56.01495 37.71356 2492 ft 203 kts 268°
2026-04-30 18:24 56.00893 37.66931 2512 ft 162 kts 257°
2026-04-30 18:24 56.00630 37.65135 2509 ft 141 kts 257°
2026-04-30 18:24 56.00390 37.63496 2506 ft 133 kts 257°
2026-04-30 18:25 56.00154 37.61887 2517 ft 139 kts 257°
2026-04-30 18:25 55.99646 37.58426 2304 ft 145 kts 257°
2026-04-30 18:25 55.99389 37.56685 2123 ft 145 kts 257°
2026-04-30 18:26 55.98878 37.53226 1738 ft 144 kts 257°
2026-04-30 18:26 55.98624 37.51507 1499 ft 143 kts 256°
2026-04-30 18:26 55.98371 37.49796 1301 ft 142 kts 256°
2026-04-30 18:27 55.97875 37.46433 914 ft 139 kts 256°
2026-04-30 18:27 55.97624 37.44766 725 ft 138 kts 256°
2026-04-30 18:28 55.97213 37.41956 642 ft 61 kts 255°
2026-04-30 18:28 55.97145 37.41518 643 ft 18 kts 254°
2026-04-30 18:28 55.97258 37.41301 639 ft 6 kts 345°
2026-04-30 18:29 55.97328 37.41268 640 ft 14 kts 345°
2026-04-30 18:29 55.97505 37.41184 642 ft 0 kts 344°
2026-04-30 18:30 55.97565 37.41154 639 ft 12 kts 346°
2026-04-30 18:30 55.97648 37.41334 648 ft 10 kts 75°
2026-04-30 18:31 55.97666 37.41451 643 ft 9 kts 75°
2026-04-30 18:31 55.97699 37.41679 641 ft 11 kts 75°
2026-04-30 18:32 55.97740 37.41952 642 ft 12 kts 74°
2026-04-30 18:32 55.97784 37.41947 642 ft 7 kts 320°
2026-04-30 18:32 55.97807 37.41887 643 ft 0 kts 303°